Location: Dackenheim
(49.5215°N, 8.1854°E)
Time: 02:40:06
(UTC+00:00)

UWE-3 - Pass Details

Date: 19 March 2026
Orbit: 543 x 612 km, 97.9° (Epoch: 12 April)

Event Time Altitude Azimuth Distance (km) Brightness Sun altitude
Rises 01:07:33 0° 29° (NNE) 2,879 ? -37.2°
Reaches altitude 10° 01:10:34 10° 52° (NE) 1,958 ? -37.0°
Enters shadow 01:11:12 12° 59° (ENE) 1,818 ? -37.0°
